MUOS-5

Last updated on Fri Dec 19 2025 00:02:51 GMT+0000 (Coordinated Universal Time)

1 41622U 16041A 25352.60456825 -.00000108 00000+0 00000+0 0 9998 2 41622 2.6007 298.8501 0199686 262.7053 358.6499 1.00271901 35271
UTC large
Height (km)
Speed (km/s)
/
Latitude / Longitude
Inclination (degrees)
Orbital Period (minutes)
Azimuth
Elevation
Range (km)
Doppler Factor

Next 0 passes for location: London (51.5072 / 0.1276)

Sorry there are no passes over London.